Location: Puketoi
(40.5833°S, 176.0167°E)
Time: 15:13:09
(UTC+00:00)

PAYLOAD A - Pass Details

Date: 25 September 2023
Orbit: 692 x 830 km, 98.5° (Epoch: 01 December)

Event Time Altitude Azimuth Distance (km) Brightness Sun altitude
Exits shadow 14:04:01 21° 149° (SSE) 1,780 6.3 -40.8°
Drops below altitude 10° 14:06:28 10° 171° (S) 2,467 7.1 -40.5°
Sets 14:09:10 0° 182° (S) 3,412 7.9 -40.2°
